Location: Friendly Valley
(37.6901°N, 89.9107°W)
Time: 10:26:40
(UTC+00:00)

ISS - Visible Passes

Search period start: 10 October 2024 00:00
Search period end: 20 October 2024 00:00
Orbit: 412 x 424 km, 51.6° (Epoch: 10 October)

Date Brightness Start Highest point End Pass type
(mag) Time Alt. Az. Time Alt. Az. Time Alt. Az.
15 Oct -1.6 11:18:51 10° S 11:21:41 26° SE 11:24:31 10° ENE visible
16 Oct -0.9 10:31:36 10° SSE 10:33:33 15° SE 10:35:28 10° E visible
17 Oct -3.8 11:18:16 10° SW 11:21:36 88° SE 11:24:56 10° NE visible
18 Oct -2.9 10:32:32 38° S 10:33:15 45° SE 10:36:27 10° ENE visible
19 Oct -0.7 09:46:41 16° E 09:46:41 16° E 09:47:39 10° ENE visible
19 Oct -2.8 11:19:37 18° W 11:21:32 32° NNW 11:24:34 10° NNE visible
